STARLINK-35653, 66122

Orbit data source: Space-Track

STARLINK-35653, 66122 is a payload satellite owned by SpaceX/Seattle (US) in LEO that was launched on Wed, 22 Oct 2025 UTC via an FALCON 9 launch vehicle from the Air Force Western Test Range (AFWTR). Payload-class satellites include a variety of spacecraft equipped with specific instruments for various scientific and technological missions. These include communications satellites like Starlink; space stations such as the ISS; scientific satellites like the Hubble; Earth observation satellites from companies like Planet Labs, Umbra, and HawkEye 360; GPS; miniature CubeSats for education and research; and military/defense satellites.

Loading next visibility...
Identifier
66122, 2025-237J
Orbit
LEO
Country
Flag of USUS
Related business
Manufacturer
SpaceX/Seattle
Mission
Operational spacecraft
Bus & Motor
STARLINK V2MO, Unknown motor
Mass
575 kg wet, ~530 kg dry
Launch date (UTC)
2025-10-22 (2 weeks ago)
Launch vehicle
FALCON 9
Launch site
Air Force Western Test Range (AFWTR)
Object type
Payload
Rocket body
Debris
Shape & HBR
Unknown shape, 17.7 m
Radar Cross Section
RCS unknown

Expand to show TLE details & history
Last TLE update: 6 hours ago

TLE from 6 hours ago
0 STARLINK-35653
1 66122U 25237J   25312.16668980 -.01844506  00000-0 -17036-1 0  9991
2 66122  53.1595 251.4143 0000905  83.8636 205.8264 15.70306934  3924
Epoch: 2025-11-08T04:00Z
TLE epoch observation values (Epoch: 2025-11-08T04:00:01.998Z)
Latitude
-49.07546°
Longitude
84.5664°
Altitude
375.433 km
Speed
7.684 km/s
True Right ascension
12h 48m 41s
True Declination
-48° 53' 44"
Sunlit
Object was in daylight at epoch
Visualization orbit readout
Latitude
Unknown
Longitude
Unknown
Altitude
Unknown
Speed
Unknown
Apparent Right ascension
Unknown
Apparent Declination
Unknown
Sunlit
N/A
Visualization observer readout
Local Sidereal Time
05:50:46
Azimuth
Unknown
Elevation
Unknown
Doppler factor
Unknown
Orbital elements
Apogee altitude
358.89 km
Perigee altitude
357.67 km
Semi-major axis
6,736.417 km
Eccentricity
0.00009
Inclination
53.1595°
RAAN
251.4143°
Arg. of periapsis
83.8636°
True anomaly
205.82188°
Mean anomaly
205.8264°
Eccentric anomaly
205.82414°
Mean motion
3.92554 °/min
Orbital period
91.71 mins
BSTAR
-0.017036
Loading maneuver chart data...
Computing Atmospheric mass density...
Loading historical data...
Loading historical data...
Loading historical data...
Loading historical data...
Loading historical data...
Loading historical data...
Loading historical data...

Documentation

Showing up to 5 results
|